Preview of NWS' New Version of Forecast
This preview is not operational and should not be used for support decisions.

Regional Weather Roundup (RWR)

Issued by Gray - Portland, ME (GYX)

                            
305 
ASUS41 KGYX 261210
RWRGYX
WEATHER ROUNDUP FOR MAINE AND NEW HAMPSHIRE
NATIONAL WEATHER SERVICE GRAY ME
800 AM EDT TUE MAR 26 2019

MEZ002-005-006-010-012-015-018-020-021-024-026-027-029-261300-
MAINE
  
CITY           SKY/WX    TMP DP  RH WIND       PRES   REMARKS
PORTLAND       FAIR      28  12  51 N8        30.24R                  
6HR MIN TEMP:  19; 6HR MAX TEMP:  28;                                

SANFORD        FAIR      27  14  58 N7        30.23R                  
BAR HARBOR     FAIR      27   8  44 NW7       30.20R                  
WISCASSET      FAIR      27  12  53 VRB3      30.24R                  
6HR MIN TEMP:  16; 6HR MAX TEMP:  27;                                

ROCKLAND       FAIR      27   9  46 NW5       30.22R                  
FRYEBURG       FAIR      24   3  40 VRB3      30.22R                  
6HR MIN TEMP:  14; 6HR MAX TEMP:  27;                                

LEWISTONAUBURN FAIR      22  13  68 CALM      30.23R                  
AUGUSTA        FAIR      26   6  42 N7        30.22R                  
6HR MIN TEMP:  20; 6HR MAX TEMP:  26;                                

WATERVILLE     FAIR      24   6  46 N8        30.19R                  
BANGOR         FAIR      24   6  46 NW17      30.21R WCI  11          
6HR MIN TEMP:  18; 6HR MAX TEMP:  24;                                

GREENVILLE       N/A     13   2  61 NW18      30.08R WCI  -4          
6HR MIN TEMP:  13; 6HR MAX TEMP:  19;                                

MILLINOCKET    FAIR      19   4  51 NW10      30.18R WCI   7          
6HR MIN TEMP:   7; 6HR MAX TEMP:  19;                                

HOULTON        FAIR      15   3  59 NW7       30.13R                  
6HR MIN TEMP:   7; 6HR MAX TEMP:  16;                                

PRESQUE ISLE   FAIR      12   2  64 NW12      30.16R WCI  -2          
6HR MIN TEMP:  12; 6HR MAX TEMP:  16;                                

FRENCHVILLE    FAIR       9  -5  53 NW16G22   30.09R WCI  -8          
6HR MIN TEMP:   8; 6HR MAX TEMP:  19; 6HR PCP: TRACE;                

CARIBOU        FAIR      11   0  61 NW10      30.13R WCI  -3          
6HR MIN TEMP:  10; 6HR MAX TEMP:  16; 6HR PCP: TRACE;                

$$

NHZ002-005-008-009-011-012-014-261300-
NEW HAMPSHIRE
  
CITY           SKY/WX    TMP DP  RH WIND       PRES   REMARKS
PORTSMOUTH     MOSUNNY   30  11  46 NW7       30.21R                  
ROCHESTER      FAIR      25  12  58 NW7       30.22R                  
6HR MIN TEMP:  18; 6HR MAX TEMP:  25;                                

NASHUA         FAIR      25  17  72 CALM      30.25R                  
MANCHESTER     FAIR      28  10  46 NW5       30.22R                  
6HR MIN TEMP:  22; 6HR MAX TEMP:  28;                                

CONCORD        FAIR      22  18  85 CALM      30.23R                  
6HR MIN TEMP:  15; 6HR MAX TEMP:  24;                                

LACONIA        FAIR      26   7  44 W6        30.23R                  
PLYMOUTH       FAIR      21   8  57 CALM      30.23R                  
BERLIN         FAIR      19   6  57 N8        30.19R                  
6HR MIN TEMP:  -3; 6HR MAX TEMP:  19;                                

WHITEFIELD     FAIR       8   1  73 CALM      30.21R                  
6HR MIN TEMP:   2; 6HR MAX TEMP:  10;                                

JAFFREY        FAIR      23  12  62 CALM      30.20R                  
6HR MIN TEMP:  19; 6HR MAX TEMP:  29;                                

KEENE          FAIR      21  19  92 CALM      30.25R                  
LEBANON        FAIR      20   9  62 CALM      30.24R                  
6HR MIN TEMP:  15; 6HR MAX TEMP:  22;                                

MT WASHINGTON  MOSUNNY   -4  -8  84 NW61        N/A  WCI -39          
6HR MIN TEMP:  -4; 6HR MAX TEMP:   0;                                

$$

VTZ005-007-008-261300-
VERMONT
  
CITY           SKY/WX    TMP DP  RH WIND       PRES   REMARKS
ST JOHNSBURY     N/A      9   4  80 MISG      30.24R                  
MONTPELIER     FAIR      17   4  56 NW5       30.25R                  
BURLINGTON     FAIR      24   7  48 N9        30.30R                  
$$

MAZ007-012-024-CTZ003-RIZ002-NYZ038-NYZ072-261300-
SOUTHERN NEW ENGLAND AND NY
  
CITY           SKY/WX    TMP DP  RH WIND       PRES   REMARKS
BOSTON         FAIR      35   3  26 N13       30.23R                  
WORCESTER      FAIR      28   2  32 N12       30.18R WCI  18          
NANTUCKET      FAIR      36  16  44 NE17      30.16R                  
PROVIDENCE     FAIR      35   5  28 N10       30.21R                  
HARTFORD       FAIR      32   7  35 N6        30.24R                  
ALBANY         FAIR      28  10  46 N7        30.29R                  
NEW YORK CITY  FAIR      34   6  31 N15       30.22R                  
$$

ANZ081-ANZ082-ANZ150-NHZ014-MEZ023>029-261300-
COASTAL MARINE OBSERVATIONS
  
STATION/POSITION TIME  TEMP    WIND        PRES    WAVE
                       AIR SEA DIR/SP/G            HT/PER
                 (UTC) (F)     (DEG/KT/KT) (MB)    (FT/S)
MOUNT DESERT ROC 1200   30     310/ 23/ 24 1022.4R
CASHES LEDGE BUO 1150   36 38              1022.5R   3/ 4
$$

.............KEY..............
   WCI - WIND CHILL
   TC  - TEMPERATURE IN CELSIUS
   VSB - VISIBILITY IN MILES
   HX  - HEAT INDEX
   FAIR- INDICATES FEW OR NO CLOUDS BELOW 12,000 FT, WITH NO 
         SIGNIFICANT WEATHER AND/OR OBSTRUCTIONS TO VISIBILITY.